Regional Weather Roundup
Issued by NWS

Home | Current Version | Previous Version | Graphics & Text | Print | Product List | Glossary On
Versions: 1 2 3 4 5 6 7 8 9 10 11 12 13 14 15 16 17 18 19 20 21 22 23 24 25 26 27 28 29 30 31 32 33 34 35 36 37 38 39 40 41 42 43 44 45 46 47 48 49 50
000
ASUS43 KFSD 291802
RWRSD

WEATHER ROUNDUP FOR SOUTH DAKOTA
NATIONAL WEATHER SERVICE SIOUX FALLS SD
100 PM CDT WED JUL 29 2015

NOTE: "FAIR" INDICATES FEW OR NO CLOUDS BELOW 12,000 FEET WITH NO
SIGNIFICANT WEATHER AND/OR OBSTRUCTIONS TO VISIBILITY.


SDZ001>005-009-010-012>017-291900-
NORTHWEST AND NORTH CENTRAL SOUTH DAKOTA

CITY           SKY/WX    TMP DP  RH WIND       PRES   REMARKS
BUFFALO          N/A     79  36  21 W30G37    30.13F
FAITH            N/A     81  35  19 NW22G36   30.17S
MOBRIDGE       SUNNY     82  50  32 NW20G28   30.07F
$$

SDZ012>016-024>037-041>051-057-063-072>074-291900-
SOUTHWEST AND SOUTH CENTRAL SOUTH DAKOTA

CITY           SKY/WX    TMP DP  RH WIND       PRES   REMARKS
RAPID CTY ARPT SUNNY     78  43  28 N9        30.24F
PIERRE         SUNNY     86  38  18 W20G32    30.12F
CUSTER         SUNNY     69  35  28 W7G21     30.36F
ELLSWORTH AFB  SUNNY     78  40  25 VRB7      30.23F
PHILIP         SUNNY     83  42  23 W16G25    30.18F
PINE RIDGE     SUNNY     79  39  23 VRB3      30.27F
WINNER         FAIR      85  41  21 NW17G24   30.18F
$$

SDZ004>011-016>023-039-040-291900-
NORTHEAST SOUTH DAKOTA

CITY           SKY/WX    TMP DP  RH WIND       PRES   REMARKS
ABERDEEN       SUNNY     82  47  29 W24G36    30.04S
WATERTOWN      FAIR      77  52  41 W23G33    30.05S
BROOKINGS      FAIR      75  54  46 W23G29    30.10S
SISSETON         N/A     78  53  41 NW28G40   29.95F
$$

SDZ017-020-022-023-036>040-048>070-291900-
SOUTHEAST SOUTH DAKOTA

CITY           SKY/WX    TMP DP  RH WIND       PRES   REMARKS
SIOUX FALLS    FAIR      79  55  43 W16G25    30.13S
HURON          SUNNY     82  51  34 NW22      30.08F
CHAMBERLAIN    SUNNY     82  46  27 W17G23    30.14F
MITCHELL       SUNNY     83  50  31 W16G25    30.12F
YANKTON        FAIR      81  50  34 W17       30.14F
$$

ABBREVIATIONS USED IN REMARKS
   TC - TEMPERATURE IN CELSIUS
  WCI - WIND CHILL INDEX
   HX - HEAT INDEX
  VSB - VISIBILITY




USA.gov is the U.S. government's official web portal to all federal, state and local government web resources and services.